Schneifelwetter: Wetterstation Hallschlag, 537 m . NN
Wetterdaten: Donnerstag, 02.12.2010
Datum Zeit Temp. A. Feuchte A. Luftdruck Regen Wind Richtung Richtung Sonnenschein Helligkeit T Regen Taupunkt Windchill
02.12.2010 00:10 -9,9 C 93 % 1001 hPa 0,0 l/m 8,3 km/h (2 Bft) O-NO 60 0 min 0 lux 0,00 min -10,8 C -12,4 C
02.12.2010 00:25 -9,9 C 93 % 1000 hPa 0,0 l/m 12,1 km/h (2 Bft) O22.5 90 0 min 0 lux 0,00 min -10,8 C -16,5 C
02.12.2010 00:40 -9,9 C 93 % 1001 hPa 0,0 l/m 6,3 km/h (2 Bft) O 85 0 min 0 lux 0,00 min -10,8 C -9,9 C
02.12.2010 00:55 -9,9 C 93 % 1001 hPa 0,0 l/m 8,0 km/h (2 Bft) O22.5 90 0 min 0 lux 0,00 min -10,8 C -12,0 C
02.12.2010 01:10 -9,9 C 93 % 1001 hPa 0,0 l/m 7,2 km/h (2 Bft) O-NO22.5 70 0 min 0 lux 0,00 min -10,8 C -11,0 C
02.12.2010 01:25 -9,9 C 93 % 1001 hPa 0,0 l/m 6,7 km/h (2 Bft) NO 50 0 min 0 lux 0,00 min -10,8 C -10,3 C
02.12.2010 01:40 -9,9 C 93 % 1001 hPa 0,0 l/m 3,3 km/h (1 Bft) O 90 0 min 0 lux 0,00 min -10,8 C -9,9 C
02.12.2010 01:55 -10,0 C 93 % 1001 hPa 0,0 l/m 7,7 km/h (2 Bft) O-NO 60 0 min 0 lux 0,00 min -10,9 C -11,8 C
02.12.2010 02:10 -10,0 C 93 % 1001 hPa 0,0 l/m 7,3 km/h (2 Bft) O-NO 60 0 min 0 lux 0,00 min -10,9 C -11,2 C
02.12.2010 02:25 -9,9 C 93 % 1001 hPa 0,0 l/m 5,4 km/h (1 Bft) O-NO 60 0 min 0 lux 0,00 min -10,8 C -9,9 C
02.12.2010 02:40 -9,9 C 93 % 1001 hPa 0,0 l/m 7,4 km/h (2 Bft) S-SO 165 0 min 0 lux 0,00 min -10,8 C -11,3 C
02.12.2010 02:55 -9,9 C 93 % 1001 hPa 0,0 l/m 7,8 km/h (2 Bft) S-SO 155 0 min 0 lux 0,00 min -10,8 C -11,8 C
02.12.2010 03:10 -9,9 C 93 % 1001 hPa 0,0 l/m 4,3 km/h (1 Bft) SO 135 0 min 0 lux 0,00 min -10,8 C -9,9 C
02.12.2010 03:25 -9,9 C 93 % 1001 hPa 0,0 l/m 5,2 km/h (1 Bft) S 170 0 min 0 lux 0,00 min -10,8 C -9,9 C
02.12.2010 03:40 -9,9 C 93 % 1001 hPa 0,0 l/m 4,6 km/h (1 Bft) S-SO 160 0 min 0 lux 0,00 min -10,8 C -9,9 C
02.12.2010 03:55 -9,9 C 93 % 1001 hPa 0,0 l/m 4,5 km/h (1 Bft) SO 140 0 min 0 lux 0,00 min -10,8 C -9,9 C
02.12.2010 04:10 -9,9 C 93 % 1001 hPa 0,0 l/m 2,3 km/h (1 Bft) SO 140 0 min 0 lux 0,00 min -10,8 C -9,9 C
02.12.2010 04:26 -9,9 C 93 % 1001 hPa 0,0 l/m 0,0 km/h (0 Bft) SO 140 0 min 0 lux 0,00 min -10,8 C -9,9 C
02.12.2010 04:41 -9,9 C 93 % 1001 hPa 0,0 l/m 3,5 km/h (1 Bft) SO 140 0 min 0 lux 0,00 min -10,8 C -9,9 C
02.12.2010 04:56 -9,9 C 93 % 1002 hPa 0,0 l/m 5,2 km/h (1 Bft) S-SO 165 0 min 0 lux 0,00 min -10,8 C -9,9 C
02.12.2010 05:11 -9,9 C 94 % 1002 hPa 0,0 l/m 2,1 km/h (1 Bft) S-SO 150 0 min 0 lux 0,00 min -10,7 C -9,9 C
02.12.2010 05:26 -9,8 C 94 % 1002 hPa 0,0 l/m 4,0 km/h (1 Bft) SO 145 0 min 0 lux 0,00 min -10,6 C -9,8 C
02.12.2010 05:41 -9,8 C 94 % 1002 hPa 0,0 l/m 0,1 km/h (0 Bft) SO 145 0 min 0 lux 0,00 min -10,6 C -9,8 C
02.12.2010 05:56 -9,8 C 94 % 1002 hPa 0,0 l/m 0,6 km/h (0 Bft) SO 145 0 min 0 lux 0,00 min -10,6 C -9,8 C
02.12.2010 06:11 -9,8 C 94 % 1002 hPa 0,0 l/m 2,7 km/h (1 Bft) SO 145 0 min 0 lux 0,00 min -10,6 C -9,8 C
02.12.2010 06:26 -9,7 C 94 % 1002 hPa 0,0 l/m 4,7 km/h (1 Bft) SO 145 0 min 0 lux 0,00 min -10,5 C -9,7 C
02.12.2010 06:41 -9,7 C 94 % 1002 hPa 0,0 l/m 3,1 km/h (1 Bft) S-SO 150 0 min 0 lux 0,00 min -10,5 C -9,7 C
02.12.2010 06:56 -9,7 C 94 % 1002 hPa 0,0 l/m 0,3 km/h (0 Bft) S-SO 150 0 min 0 lux 0,00 min -10,5 C -9,7 C
02.12.2010 07:11 -9,6 C 94 % 1002 hPa 0,0 l/m 3,4 km/h (1 Bft) SO 145 0 min 0 lux 0,00 min -10,4 C -9,6 C
02.12.2010 07:26 -9,5 C 94 % 1002 hPa 0,0 l/m 0,0 km/h (0 Bft) SO 145 0 min 0 lux 0,00 min -10,3 C -9,5 C
02.12.2010 07:46 -9,5 C 94 % 1002 hPa 0,0 l/m 0,0 km/h (0 Bft) SO 145 0 min 0 lux 0,00 min -10,3 C -9,5 C
02.12.2010 08:01 -9,6 C 93 % 1002 hPa 0,0 l/m 0,1 km/h (0 Bft) S-SO 150 0 min 59 lux 0,00 min -10,5 C -9,6 C
02.12.2010 08:16 -9,7 C 93 % 1002 hPa 0,0 l/m 5,4 km/h (1 Bft) O-NO45 65 0 min 359 lux 0,00 min -10,6 C -9,7 C
02.12.2010 08:31 -9,8 C 93 % 1002 hPa 0,0 l/m 5,4 km/h (1 Bft) N-NO 15 0 min 820 lux 0,00 min -10,7 C -9,8 C
02.12.2010 08:47 -9,8 C 93 % 1003 hPa 0,0 l/m 0,6 km/h (0 Bft) NO 55 0 min 1,23 klux 0,00 min -10,7 C -9,8 C
02.12.2010 09:02 -9,7 C 94 % 1003 hPa 0,0 l/m 0,0 km/h (0 Bft) NO 55 0 min 1,86 klux 0,00 min -10,5 C -9,7 C
02.12.2010 09:16 -9,5 C 94 % 1003 hPa 0,0 l/m 0,0 km/h (0 Bft) NO 55 0 min 2,22 klux 0,00 min -10,3 C -9,5 C
02.12.2010 09:31 -9,2 C 94 % 1003 hPa 0,0 l/m 0,0 km/h (0 Bft) NO 55 0 min 3,60 klux 0,00 min -10,0 C -9,2 C
02.12.2010 09:46 -9,0 C 94 % 1003 hPa 0,0 l/m 0,0 km/h (0 Bft) NO 55 0 min 4,53 klux 0,00 min -9,8 C -9,0 C
02.12.2010 10:01 -8,7 C 94 % 1003 hPa 0,0 l/m 0,0 km/h (0 Bft) NO 55 0 min 6,61 klux 0,00 min -9,5 C -8,7 C
02.12.2010 10:16 -8,3 C 94 % 1003 hPa 0,0 l/m 0,0 km/h (0 Bft) O-NO 60 0 min 9,8 klux 0,00 min -9,1 C -8,3 C
02.12.2010 10:32 -7,9 C 93 % 1003 hPa 0,0 l/m 0,4 km/h (0 Bft) S-SO 155 0 min 10,7 klux 0,00 min -8,8 C -7,9 C
02.12.2010 10:46 -7,5 C 92 % 1003 hPa 0,0 l/m 0,0 km/h (0 Bft) S-SO 155 0 min 12,8 klux 0,00 min -8,6 C -7,5 C
02.12.2010 11:01 -7,2 C 91 % 1003 hPa 0,0 l/m 2,5 km/h (1 Bft) S-SO 155 0 min 21,6 klux 0,00 min -8,4 C -7,2 C
02.12.2010 11:16 -7,3 C 91 % 1004 hPa 0,0 l/m 0,4 km/h (0 Bft) S-SO 155 0 min 21,2 klux 0,00 min -8,5 C -7,3 C
02.12.2010 11:31 -7,1 C 91 % 1003 hPa 0,0 l/m 0,0 km/h (0 Bft) S-SO 155 0 min 23,1 klux 0,00 min -8,3 C -7,1 C
02.12.2010 11:46 -6,6 C 91 % 1003 hPa 0,0 l/m 0,2 km/h (0 Bft) S-SO 155 0 min 24,5 klux 0,00 min -7,8 C -6,6 C
02.12.2010 12:02 -6,3 C 90 % 1004 hPa 0,0 l/m 6,2 km/h (2 Bft) S-SW22.5 200 0 min 20,3 klux 0,00 min -7,7 C -6,3 C
02.12.2010 12:17 -6,2 C 90 % 1003 hPa 0,0 l/m 3,4 km/h (1 Bft) SW 220 0 min 23,5 klux 0,00 min -7,6 C -6,2 C
02.12.2010 12:31 -5,8 C 90 % 1003 hPa 0,0 l/m 5,0 km/h (1 Bft) S 180 0 min 26,0 klux 0,00 min -7,2 C -5,8 C
02.12.2010 12:46 -5,9 C 89 % 1003 hPa 0,0 l/m 7,9 km/h (2 Bft) SW22.5 230 0 min 24,3 klux 0,00 min -7,4 C -7,7 C
02.12.2010 13:01 -5,4 C 90 % 1003 hPa 0,0 l/m 7,2 km/h (2 Bft) W-SW 250 0 min 23,1 klux 0,00 min -6,8 C -6,4 C
02.12.2010 13:16 -5,0 C 89 % 1003 hPa 0,0 l/m 6,2 km/h (2 Bft) W-SW 250 0 min 19,1 klux 0,00 min -6,5 C -5,0 C
02.12.2010 13:32 -4,7 C 89 % 1003 hPa 0,0 l/m 10,5 km/h (2 Bft) W-SW22.5 255 0 min 23,9 klux 0,00 min -6,2 C -9,1 C
02.12.2010 13:47 -5,0 C 88 % 1003 hPa 0,0 l/m 7,7 km/h (2 Bft) W-SW 255 0 min 16,9 klux 0,00 min -6,7 C -6,6 C
02.12.2010 14:01 -5,0 C 88 % 1003 hPa 0,0 l/m 7,9 km/h (2 Bft) W-SW 250 0 min 14,0 klux 0,00 min -6,7 C -6,8 C
02.12.2010 14:16 -5,1 C 88 % 1003 hPa 0,0 l/m 4,9 km/h (1 Bft) W 260 0 min 11,4 klux 0,00 min -6,8 C -5,1 C
02.12.2010 14:31 -5,5 C 88 % 1003 hPa 0,0 l/m 3,9 km/h (1 Bft) W-SW 240 0 min 9,4 klux 0,00 min -7,2 C -5,5 C
02.12.2010 14:46 -5,5 C 88 % 1003 hPa 0,0 l/m 2,9 km/h (1 Bft) W-SW 240 0 min 8,02 klux 0,00 min -7,2 C -5,5 C
02.12.2010 15:01 -5,5 C 88 % 1003 hPa 0,0 l/m 4,5 km/h (1 Bft) SW 220 0 min 7,16 klux 0,00 min -7,2 C -5,5 C
02.12.2010 15:17 -5,6 C 88 % 1003 hPa 0,0 l/m 3,9 km/h (1 Bft) SW 220 0 min 9,00 klux 0,00 min -7,3 C -5,6 C
02.12.2010 15:32 -5,6 C 89 % 1003 hPa 0,0 l/m 2,8 km/h (1 Bft) SW 220 0 min 7,54 klux 0,00 min -7,1 C -5,6 C
02.12.2010 15:46 -5,9 C 88 % 1003 hPa 0,0 l/m 0,8 km/h (0 Bft) SW 220 0 min 4,99 klux 0,00 min -7,6 C -5,9 C
02.12.2010 16:01 -6,2 C 88 % 1003 hPa 0,0 l/m 2,8 km/h (1 Bft) SW 220 0 min 2,65 klux 0,00 min -7,9 C -6,2 C
02.12.2010 16:16 -6,4 C 90 % 1003 hPa 0,0 l/m 0,0 km/h (0 Bft) SW 220 0 min 1,27 klux 0,00 min -7,8 C -6,4 C
02.12.2010 16:31 -6,5 C 90 % 1003 hPa 0,0 l/m 0,0 km/h (0 Bft) SW 220 0 min 949 lux 0,00 min -7,9 C -6,5 C
02.12.2010 16:46 -7,2 C 89 % 1003 hPa 0,0 l/m 3,2 km/h (1 Bft) SW 220 0 min 468 lux 0,00 min -8,7 C -7,2 C
02.12.2010 17:02 -7,5 C 90 % 1003 hPa 0,0 l/m 4,3 km/h (1 Bft) SW 220 0 min 147 lux 0,00 min -8,8 C -7,5 C
02.12.2010 17:17 -7,5 C 91 % 1003 hPa 0,0 l/m 5,6 km/h (1 Bft) S-SO 165 0 min 24 lux 0,00 min -8,7 C -7,5 C
02.12.2010 17:31 -7,5 C 91 % 1003 hPa 0,0 l/m 1,9 km/h (1 Bft) S-SO 165 0 min 4 lux 0,00 min -8,7 C -7,5 C
02.12.2010 17:46 -7,5 C 92 % 1003 hPa 0,0 l/m 4,4 km/h (1 Bft) S-SO 165 0 min 0 lux 0,00 min -8,6 C -7,5 C
02.12.2010 18:01 -7,5 C 92 % 1003 hPa 0,0 l/m 9,4 km/h (2 Bft) S22.5 180 0 min 0 lux 0,00 min -8,6 C -11,1 C
02.12.2010 18:16 -7,5 C 92 % 1003 hPa 0,0 l/m 10,3 km/h (2 Bft) S22.5 180 0 min 0 lux 0,00 min -8,6 C -12,0 C
02.12.2010 18:32 -7,5 C 92 % 1003 hPa 0,0 l/m 7,3 km/h (2 Bft) S-SW22.5 205 0 min 0 lux 0,00 min -8,6 C -8,7 C
02.12.2010 18:47 -7,5 C 92 % 1004 hPa 0,0 l/m 4,6 km/h (1 Bft) S 175 0 min 0 lux 0,00 min -8,6 C -7,5 C
02.12.2010 19:01 -7,5 C 92 % 1004 hPa 0,0 l/m 0,0 km/h (0 Bft) S 175 0 min 0 lux 0,00 min -8,6 C -7,5 C
02.12.2010 19:16 -7,5 C 92 % 1004 hPa 0,0 l/m 0,0 km/h (0 Bft) S 175 0 min 0 lux 0,00 min -8,6 C -7,5 C
02.12.2010 19:31 -7,5 C 92 % 1004 hPa 0,0 l/m 0,0 km/h (0 Bft) S 175 0 min 0 lux 0,00 min -8,6 C -7,5 C
02.12.2010 19:46 -7,4 C 93 % 1004 hPa 0,0 l/m 0,0 km/h (0 Bft) S 175 0 min 0 lux 0,00 min -8,3 C -7,4 C
02.12.2010 20:01 -7,3 C 93 % 1004 hPa 0,0 l/m 0,0 km/h (0 Bft) S 175 0 min 0 lux 0,00 min -8,2 C -7,3 C
02.12.2010 20:17 -7,6 C 92 % 1004 hPa 0,0 l/m 0,0 km/h (0 Bft) S 175 0 min 0 lux 0,00 min -8,7 C -7,6 C
02.12.2010 20:32 -7,7 C 93 % 1004 hPa 0,0 l/m 1,3 km/h (1 Bft) S 175 0 min 0 lux 0,00 min -8,6 C -7,7 C
02.12.2010 20:46 -7,5 C 93 % 1004 hPa 0,0 l/m 0,3 km/h (0 Bft) S 175 0 min 0 lux 0,00 min -8,4 C -7,5 C
02.12.2010 21:01 -7,5 C 93 % 1004 hPa 0,0 l/m 0,0 km/h (0 Bft) S 175 0 min 0 lux 0,00 min -8,4 C -7,5 C
02.12.2010 21:16 -7,6 C 93 % 1004 hPa 0,0 l/m 0,0 km/h (0 Bft) S 175 0 min 0 lux 0,00 min -8,5 C -7,6 C
02.12.2010 21:31 -8,2 C 92 % 1004 hPa 0,0 l/m 4,0 km/h (1 Bft) S 175 0 min 0 lux 0,00 min -9,3 C -8,2 C
02.12.2010 21:46 -8,8 C 92 % 1004 hPa 0,0 l/m 0,2 km/h (0 Bft) S 175 0 min 0 lux 0,00 min -9,9 C -8,8 C
02.12.2010 22:02 -9,3 C 92 % 1004 hPa 0,0 l/m 0,0 km/h (0 Bft) S 175 0 min 0 lux 0,00 min -10,4 C -9,3 C
02.12.2010 22:17 -9,5 C 93 % 1004 hPa 0,0 l/m 4,3 km/h (1 Bft) S 175 0 min 0 lux 0,00 min -10,4 C -9,5 C
02.12.2010 22:31 -9,6 C 93 % 1004 hPa 0,0 l/m 11,5 km/h (2 Bft) N-NO 25 0 min 0 lux 0,00 min -10,5 C -15,6 C
02.12.2010 22:46 -9,3 C 94 % 1004 hPa 0,0 l/m 8,5 km/h (2 Bft) N 5 0 min 0 lux 0,00 min -10,1 C -12,0 C
02.12.2010 23:01 -10,0 C 93 % 1005 hPa 0,0 l/m 0,3 km/h (0 Bft) N 5 0 min 0 lux 0,00 min -10,9 C -10,0 C
02.12.2010 23:16 -10,4 C 94 % 1005 hPa 0,0 l/m 0,0 km/h (0 Bft) N 5 0 min 0 lux 0,00 min -11,2 C -10,4 C
02.12.2010 23:31 -10,2 C 94 % 1005 hPa 0,0 l/m 2,8 km/h (1 Bft) N 5 0 min 0 lux 0,00 min -11,0 C -10,2 C
02.12.2010 23:46 -10,1 C 94 % 1005 hPa 0,0 l/m 0,0 km/h (0 Bft) N 5 0 min 0 lux 0,00 min -10,9 C -10,1 C
02.12.2010 23:55 -10,4 C 94 % 1005 hPa 0,0 l/m 0,0 km/h (0 Bft) N 5 0 min 0 lux 0,00 min -11,2 C -10,4 C
_ Min-Zeit 23:16 13:47 00:25 - 04:26 - - - - - 23:16 00:25
Minimum _ -10,4 C 88 % 1000 hPa - 0,0 km/h (0 Bft) - - - - - -11,2 C -16,5 C
_ Max-Zeit 13:32 05:11 23:01 00:10 00:25 - - 00:10 12:31 00:10 13:32 13:16
Maximum _ -4,7 C 94 % 1005 hPa 0,0 l/m 12,1 km/h
O (2 Bft)
- - 0 min 26,0 klux 0,00 min -6,2 C -5,0 C
Durchschnitt _ -8,3 C 92 % 1003 hPa #0,0 l/m 3,4 km/h (1 Bft) S-SO - #0 min. 4,16 klux #0 min. -9,4 C -8,8 C